STARLINK-36128, 66873

Orbit data source: Space-Track

STARLINK-36128, 66873 is a payload satellite owned by SpaceX/Seattle (US) in LEO that was launched on Tue, 02 Dec 2025 UTC via an FALCON 9 launch vehicle from the Air Force Eastern Test Range (AFETR). Payload-class satellites include a variety of spacecraft equipped with specific instruments for various scientific and technological missions. These include communications satellites like Starlink; space stations such as the ISS; scientific satellites like the Hubble; Earth observation satellites from companies like Planet Labs, Umbra, and HawkEye 360; GPS; miniature CubeSats for education and research; and military/defense satellites.

Loading next visibility...
Identifier
66873, 2025-281AB
Orbit
LEO
Country
Flag of USUS
Related business
Manufacturer
SpaceX/Seattle
Mission
Operational Commercial Communications
Bus & Motor
STARLINK V2MO, Unknown motor
Mass
575 kg wet, ~530 kg dry
Launch date (UTC)
2025-12-02 (7 months ago)
Launch vehicle
FALCON 9
Launch site
Air Force Eastern Test Range (AFETR)
Object type
Payload
Rocket body
Debris
Shape & HBR
Box + 2 Pan, 17.7 m
Radar Cross Section
36.964 m², Large (>1 m²)

Expand to show TLE details & history
Last TLE update: 14 hours ago

TLE from 14 hours ago
0 STARLINK-36128
1 66873U 25281AB  26171.26322943  .00005874  00000-0  22279-3 0  9995
2 66873  43.0024 124.1146 0001739 263.0897  96.9757 15.27582148 31818
Epoch: 2026-06-20T06:19Z
TLE epoch observation values (Epoch: 2026-06-20T06:19:03.022Z)
Latitude
-0.00002°
Longitude
120.87162°
Altitude
482.963 km
Speed
7.626 km/s
True Right ascension
08h 16m 27s
True Declination
0° 00' 00"
Sunlit
Object was in daylight at epoch
Visualization orbit readout
Latitude
Unknown
Longitude
Unknown
Altitude
Unknown
Speed
Unknown
Apparent Right ascension
Unknown
Apparent Declination
Unknown
Sunlit
N/A
Visualization observer readout
Local Sidereal Time
07:12:35
Azimuth
Unknown
Elevation
Unknown
Doppler factor
Unknown
Orbital elements
Apogee altitude
486.181 km
Perigee altitude
483.794 km
Semi-major axis
6,863.124 km
Eccentricity
0.00017
Inclination
43.0024°
RAAN
124.1146°
Arg. of periapsis
263.0897°
True anomaly
96.99548°
Mean anomaly
96.9757°
Eccentric anomaly
96.98559°
Mean motion
3.81734 °/min
Orbital period
94.31 mins
BSTAR
0.00022279
Loading maneuver chart data...
Computing Atmospheric mass density...
Loading historical data...
Loading historical data...
Loading historical data...
Loading historical data...
Loading historical data...
Loading historical data...
Loading historical data...

Documentation

Showing up to 5 results
|